TimeEDT,TemperatureF,Dew PointF,Humidity,Sea Level PressureIn,VisibilityMPH,Wind Direction,Wind SpeedMPH,Gust SpeedMPH,PrecipitationIn,Events,Conditions,WindDirDegrees,DateUTC
12:15 AM,34.7,23.9,65,29.91,10.0,West,5.8,-,N/A,,Overcast,270,2013-03-26 04:15:00
12:35 AM,34.3,23.9,66,29.90,10.0,West,8.1,16.1,N/A,,Mostly Cloudy,270,2013-03-26 04:35:00
12:55 AM,33.1,23.5,68,29.91,10.0,Calm,Calm,-,N/A,,Scattered Clouds,0,2013-03-26 04:55:00
1:15 AM,33.8,23.4,66,29.91,10.0,West,4.6,-,N/A,,Scattered Clouds,280,2013-03-26 05:15:00
1:35 AM,32.2,23.0,69,29.91,10.0,SW,3.5,-,N/A,,Mostly Cloudy,220,2013-03-26 05:35:00
1:55 AM,32.4,23.2,69,29.91,10.0,Calm,Calm,-,N/A,,Scattered Clouds,0,2013-03-26 05:55:00
2:15 AM,32.2,23.7,71,29.91,10.0,WSW,4.6,-,N/A,,Scattered Clouds,250,2013-03-26 06:15:00
2:35 AM,32.7,23.2,68,29.91,10.0,Calm,Calm,-,N/A,,Mostly Cloudy,0,2013-03-26 06:35:00
2:55 AM,31.6,23.2,71,29.91,10.0,WSW,5.8,-,N/A,,Scattered Clouds,240,2013-03-26 06:55:00
3:15 AM,32.5,22.1,65,29.92,10.0,SSE,3.5,-,N/A,,Scattered Clouds,160,2013-03-26 07:15:00
3:35 AM,32.5,21.7,64,29.92,10.0,Calm,Calm,-,N/A,,Scattered Clouds,0,2013-03-26 07:35:00
3:55 AM,32.2,21.4,64,29.91,10.0,WNW,3.5,-,N/A,,Scattered Clouds,290,2013-03-26 07:55:00
4:15 AM,30.4,22.5,72,29.91,10.0,WSW,3.5,-,N/A,,Scattered Clouds,250,2013-03-26 08:15:00
4:35 AM,29.8,22.3,73,29.92,10.0,Calm,Calm,-,N/A,,Scattered Clouds,0,2013-03-26 08:35:00
4:55 AM,31.8,22.3,68,29.91,10.0,West,3.5,-,N/A,,Mostly Cloudy,260,2013-03-26 08:55:00
5:15 AM,31.8,21.7,66,29.92,10.0,WSW,4.6,-,N/A,,Scattered Clouds,250,2013-03-26 09:15:00
5:35 AM,34.0,20.7,58,29.92,10.0,WNW,9.2,18.4,N/A,,Clear,300,2013-03-26 09:35:00
5:55 AM,33.8,20.7,59,29.92,10.0,WNW,9.2,-,N/A,,Clear,300,2013-03-26 09:55:00
6:15 AM,34.2,20.8,58,29.92,10.0,WNW,10.4,17.3,N/A,,Clear,290,2013-03-26 10:15:00
6:35 AM,34.3,20.7,57,29.93,10.0,WNW,11.5,16.1,N/A,,Clear,300,2013-03-26 10:35:00
6:55 AM,34.7,20.5,56,29.93,10.0,NW,13.8,17.3,N/A,,Clear,310,2013-03-26 10:55:00
7:15 AM,34.7,21.0,57,29.94,10.0,WNW,11.5,-,N/A,,Scattered Clouds,300,2013-03-26 11:15:00
7:35 AM,34.9,21.2,57,29.94,10.0,West,5.8,16.1,N/A,,Mostly Cloudy,280,2013-03-26 11:35:00
7:55 AM,34.7,21.4,58,29.95,10.0,West,5.8,-,N/A,,Scattered Clouds,280,2013-03-26 11:55:00
8:15 AM,35.6,21.6,57,29.96,10.0,West,6.9,-,N/A,,Clear,280,2013-03-26 12:15:00
8:35 AM,36.5,21.2,54,29.96,10.0,West,10.4,-,N/A,,Clear,280,2013-03-26 12:35:00
8:55 AM,37.4,21.4,52,29.97,10.0,WNW,10.4,-,N/A,,Clear,300,2013-03-26 12:55:00
9:15 AM,38.3,21.6,51,29.98,10.0,West,8.1,-,N/A,,Clear,280,2013-03-26 13:15:00
9:35 AM,39.4,21.0,48,29.99,10.0,WNW,11.5,18.4,N/A,,Clear,300,2013-03-26 13:35:00
9:55 AM,39.4,21.0,48,30.00,-9999.0,WNW,13.8,-,N/A,,Unknown,290,2013-03-26 13:55:00
10:15 AM,39.4,21.4,49,30.00,10.0,WNW,10.4,19.6,N/A,,Unknown,300,2013-03-26 14:15:00
10:35 AM,40.3,21.9,48,30.01,10.0,West,11.5,-,N/A,,Scattered Clouds,280,2013-03-26 14:35:00
10:55 AM,41.2,21.4,45,30.02,10.0,West,10.4,18.4,N/A,,Mostly Cloudy,280,2013-03-26 14:55:00
11:15 AM,41.2,21.2,45,30.02,10.0,West,12.7,21.9,N/A,,Overcast,280,2013-03-26 15:15:00
11:35 AM,41.2,21.2,45,30.03,10.0,WNW,11.5,20.7,N/A,,Overcast,300,2013-03-26 15:35:00
11:55 AM,41.9,21.4,44,30.04,10.0,WNW,13.8,20.7,N/A,,Overcast,290,2013-03-26 15:55:00
12:15 PM,41.9,21.6,44,30.04,10.0,NW,11.5,24.2,N/A,,Overcast,310,2013-03-26 16:15:00
12:35 PM,41.0,21.9,47,30.05,10.0,West,10.4,17.3,N/A,,Overcast,280,2013-03-26 16:35:00
12:55 PM,41.2,21.9,46,30.05,10.0,WNW,9.2,-,N/A,,Overcast,290,2013-03-26 16:55:00
1:15 PM,41.4,22.5,47,30.05,10.0,WNW,10.4,16.1,N/A,,Overcast,300,2013-03-26 17:15:00
1:35 PM,41.4,22.5,47,30.05,10.0,WNW,11.5,-,N/A,,Overcast,300,2013-03-26 17:35:00
1:55 PM,43.0,23.0,45,30.05,10.0,WNW,10.4,21.9,N/A,,Overcast,290,2013-03-26 17:55:00
2:15 PM,44.1,22.8,43,30.05,10.0,NW,10.4,19.6,N/A,,Overcast,310,2013-03-26 18:15:00
2:35 PM,43.5,22.8,44,30.05,10.0,NW,9.2,16.1,N/A,,Overcast,310,2013-03-26 18:35:00
2:55 PM,43.5,22.3,43,30.05,10.0,NNW,9.2,-,N/A,,Overcast,340,2013-03-26 18:55:00
3:15 PM,43.7,21.2,41,30.05,10.0,NW,13.8,20.7,N/A,,Overcast,310,2013-03-26 19:15:00
3:35 PM,43.9,22.5,43,30.06,10.0,WNW,15.0,19.6,N/A,,Overcast,300,2013-03-26 19:35:00
3:55 PM,43.3,21.6,42,30.06,10.0,NW,16.1,24.2,N/A,,Overcast,310,2013-03-26 19:55:00
4:15 PM,43.9,22.3,42,30.06,10.0,NNW,9.2,-,N/A,,Overcast,330,2013-03-26 20:15:00
4:35 PM,43.2,22.5,44,30.07,10.0,WNW,10.4,-,N/A,,Overcast,300,2013-03-26 20:35:00
4:55 PM,43.3,22.6,44,30.07,10.0,NW,15.0,23.0,N/A,,Overcast,310,2013-03-26 20:55:00
5:15 PM,42.3,23.2,47,30.08,10.0,WNW,11.5,18.4,N/A,,Overcast,300,2013-03-26 21:15:00
5:35 PM,41.9,23.7,49,30.09,10.0,NW,10.4,-,N/A,,Overcast,310,2013-03-26 21:35:00
5:55 PM,41.5,23.9,50,30.10,10.0,NW,9.2,17.3,N/A,,Overcast,320,2013-03-26 21:55:00
6:15 PM,41.5,23.5,49,30.10,10.0,NW,13.8,20.7,N/A,,Overcast,320,2013-03-26 22:15:00
6:35 PM,41.2,23.0,48,30.11,10.0,NW,6.9,17.3,N/A,,Overcast,310,2013-03-26 22:35:00
6:55 PM,40.8,24.4,52,30.12,10.0,West,8.1,-,N/A,,Overcast,260,2013-03-26 22:55:00
7:15 PM,39.7,25.5,57,30.14,10.0,WNW,5.8,-,N/A,,Overcast,290,2013-03-26 23:15:00
7:35 PM,39.6,22.8,51,30.14,10.0,WNW,11.5,16.1,N/A,,Mostly Cloudy,300,2013-03-26 23:35:00
7:55 PM,39.2,21.2,49,30.15,10.0,NW,10.4,25.3,N/A,,Overcast,310,2013-03-26 23:55:00
8:15 PM,38.8,20.5,48,30.16,10.0,NW,11.5,20.7,N/A,,Scattered Clouds,320,2013-03-27 00:15:00
8:35 PM,38.3,21.0,50,30.16,10.0,NW,8.1,-,N/A,,Scattered Clouds,320,2013-03-27 00:35:00
8:55 PM,38.3,20.3,48,30.17,10.0,WNW,8.1,-,N/A,,Clear,300,2013-03-27 00:55:00
9:15 PM,37.4,20.8,51,30.18,10.0,WNW,5.8,-,N/A,,Clear,300,2013-03-27 01:15:00
9:35 PM,36.9,20.7,52,30.18,10.0,NW,5.8,-,N/A,,Scattered Clouds,320,2013-03-27 01:35:00
9:55 PM,36.5,20.7,53,30.19,10.0,WNW,3.5,-,N/A,,Scattered Clouds,300,2013-03-27 01:55:00
10:15 PM,35.6,20.7,55,30.20,10.0,WNW,6.9,-,N/A,,Scattered Clouds,290,2013-03-27 02:15:00
10:35 PM,36.5,20.3,52,30.20,10.0,WNW,5.8,-,N/A,,Clear,290,2013-03-27 02:35:00
10:55 PM,36.1,20.3,53,30.20,10.0,WNW,6.9,-,N/A,,Clear,300,2013-03-27 02:55:00
11:15 PM,36.1,20.7,53,30.20,10.0,West,6.9,-,N/A,,Clear,270,2013-03-27 03:15:00
11:35 PM,35.6,21.2,56,30.20,10.0,Calm,Calm,-,N/A,,Clear,0,2013-03-27 03:35:00
11:55 PM,35.6,21.4,56,30.21,10.0,West,3.5,-,N/A,,Clear,280,2013-03-27 03:55:00